Location: Harwich
(41.7160°N, 69.9939°W)
Time: 18:16:46
(UTC+01:00)

Courier 1B Rocket - Visible Passes

Search period start: 07 February 2023 00:00
Search period end: 17 February 2023 00:00
Orbit: 920 x 1202 km, 28.2° (Epoch: 07 February)

Date Brightness Start Highest point End Pass type
(mag) Time Alt. Az. Time Alt. Az. Time Alt. Az.
07 Feb 6.9 00:35:16 10° SW 00:39:19 18° SSW 00:43:24 10° SSE visible
07 Feb 6.9 23:34:04 10° SW 23:38:35 21° S 23:43:04 10° SE visible
08 Feb 7.3 01:29:31 10° SW 01:30:54 11° SSW 01:32:16 10° S visible
09 Feb 7.2 00:27:02 10° SW 00:30:12 14° SSW 00:33:23 10° SSE visible
09 Feb 7.1 23:25:26 10° SW 23:29:29 18° SSW 23:33:30 10° SSE visible
11 Feb 7.5 00:20:00 10° SSW 00:21:02 10° SSW 00:22:04 10° SSW visible
